[[{"header":{"parameterUnit":"m.s-1","parameterCategory":1,"la1":30.2991,"la2":30.254,"lo1":-89.0895,"lo2":-89.0444,"dy":0.0017,"dx":0.0017,"nx":28,"ny":28,"refTime":"2025-03-10T21:00:00:Z","depth":0,"parameterNumber":2,"parameterNumberName":"U-component_of_WINDS"},"data":[0,0,0,0,0,0,0,0,0,0,0,0,0,0,0,0,0,0,0,0,0,0,0,0,0,0,0,0,0,0,0,0,0,0,0,0,0,0,0,0,0,0,0,0,0,0,0,0,0,0,0,0,0,0,0,0,0,0,1.6717,1.6717,0,1.6748,1.6749,1.6749,1.674,1.6739,1.6738,1.6738,1.6774,1.6776,1.6777,0,0,0,0,0,0,0,0,0,0,0,0,0,1.6653,1.6654,1.6717,1.6717,1.6717,1.6748,1.6749,1.6749,1.674,1.6739,1.6738,1.6737,1.6774,1.6775,1.6777,0,0,0,0,0,0,0,0,0,0,0,0,0,1.6683,1.6655,1.6717,1.6716,1.6717,1.6748,1.6749,1.6749,1.674,1.6739,1.6738,1.6737,1.6773,1.6775,1.6778,1.6813,0,0,1.6785,1.6786,0,0,0,0,0,0,0,0,1.6681,1.6685,1.6716,1.6716,1.6717,1.6739,1.674,1.6771,1.674,1.6731,1.6737,1.6736,1.6763,1.6767,1.6775,1.6815,1.6816,1.6785,1.6787,1.6788,1.6788,0,0,0,0,0,0,0,1.6679,1.6684,1.6729,1.6716,1.6717,1.6716,1.6719,1.6746,1.6753,1.6732,1.6731,1.6735,1.6764,1.6773,1.6776,1.6817,1.6785,1.6787,1.6789,1.679,1.689,1.6892,0,0,0,0,0,0,1.6676,1.6682,1.6728,1.673,1.6696,1.6718,1.6722,1.6733,1.6752,1.6754,1.6736,1.6734,1.6769,1.6773,1.6777,1.6822,1.6788,1.679,1.6791,1.6889,1.6891,1.6892,0,0,0,0,0,0,1.6675,1.668,1.6727,1.6706,1.6712,1.672,1.6733,1.6734,1.6743,1.6755,1.6757,1.6743,1.6768,1.6774,1.6804,1.6823,1.6791,1.6793,1.6888,1.689,1.6891,1.691,0,0,0,0,0,0,1.6673,1.668,1.6692,1.6706,1.6713,1.6752,1.6734,1.6735,1.6747,1.6745,1.6763,1.6765,1.6768,1.6801,1.6807,1.6825,1.6795,1.6886,1.6889,1.6891,1.6907,1.6912,1.6916,0,0,0,0,0,1.6671,1.6696,1.6692,1.6698,1.6728,1.6753,1.6757,1.6759,1.6748,1.6761,1.677,1.6764,1.682,1.6804,1.6811,1.683,1.6885,1.6888,1.6891,1.6906,1.6911,1.6916,0,0,0,0,0,0,1.6684,1.6698,1.6694,1.6724,1.6738,1.6752,1.6768,1.6764,1.6782,1.678,1.6783,1.6787,1.6819,1.6828,1.681,1.6867,1.6851,1.6855,1.686,1.6865,1.6869,1.6867,1.6797,0,0,0,0,0,1.669,1.6708,1.672,1.6745,1.6752,1.6759,1.677,1.6771,1.6785,1.6791,1.6802,1.6817,1.6839,1.6852,1.6872,1.6909,1.6914,1.6926,1.693,1.6933,1.6937,1.696,1.6966,1.6901,1.6901,1.6901,0,0,1.6704,1.6713,1.6725,1.6748,1.6759,1.6779,1.6764,1.6786,1.6802,1.6795,1.6825,1.6833,1.6851,1.6886,1.6902,1.6894,1.6956,1.6937,1.6939,1.6941,1.6963,1.6969,1.6975,1.6903,1.6903,1.6902,0,0,1.6739,1.6747,1.677,1.6781,1.6797,1.6802,1.6808,1.6823,1.6828,1.6858,1.6854,1.6874,1.691,1.6924,1.6935,1.6979,1.6975,1.6985,1.7007,1.7029,1.7034,1.7039,1.7056,1.7062,1.6989,1.6989,1.6989,0,1.6754,1.6783,1.6783,1.6806,1.6818,1.6812,1.6837,1.6848,1.6871,1.688,1.6871,1.6917,1.6929,1.6968,1.6978,1.6987,1.6996,1.6983,1.7033,1.7038,1.7042,1.7059,1.7065,1.699,1.699,1.699,1.699,0,1.6802,1.6822,1.684,1.6861,1.6874,1.6898,1.6904,1.6919,1.6919,1.6925,1.6958,1.6971,1.6995,1.7005,1.7005,1.7045,1.704,1.7032,1.7016,1.7049,1.7065,1.7072,1.6992,1.6991,1.6991,1.6991,0,0,1.6845,1.6867,1.6874,1.6884,1.6902,1.6919,1.6944,1.6967,1.698,1.6996,1.7019,1.705,1.7044,1.7057,1.7059,1.7079,1.7115,1.7069,1.7069,1.7079,1.7163,1.717,1.7177,1.7113,1.7114,1.7115,1.7162,0,1.6883,1.6925,1.6927,1.6967,1.6987,1.6983,1.7006,1.702,1.7028,1.7048,1.7057,1.708,1.7068,1.7077,1.7096,1.7107,1.7132,1.7103,1.7137,1.7138,1.7133,1.7185,1.7192,1.7235,1.7168,1.7169,1.717,0,1.6933,1.695,1.6991,1.7008,1.7017,1.7037,1.7059,1.7077,1.7096,1.71,1.7116,1.7116,1.7144,1.7127,1.7168,1.7148,1.7162,1.717,1.7172,1.7176,1.7156,1.7192,1.7249,1.7256,1.718,1.7179,1.7178,0,1.6963,1.6996,1.7026,1.7035,1.7055,1.7069,1.7079,1.7096,1.711,1.713,1.714,1.7164,1.7177,1.7197,1.7204,1.7191,1.7246,1.7229,1.7253,1.7252,1.7265,1.7264,1.7326,1.7272,1.7271,1.7271,1.7271,0,1.7005,1.7031,1.704,1.7058,1.7088,1.7091,1.7121,1.713,1.7146,1.7168,1.7166,1.7187,1.7195,1.7219,1.7225,1.7259,1.7265,1.7271,1.7273,1.7272,1.7272,1.7282,1.728,1.7273,1.7273,1.7272,1.7272,0,1.7044,1.705,1.7082,1.7099,1.7104,1.7126,1.7142,1.7161,1.7168,1.7196,1.7203,1.7216,1.7244,1.7253,1.7286,1.7291,1.7332,1.733,1.7325,1.7326,1.735,1.7348,1.7422,1.7433,1.737,1.737,1.7371,0,1.7071,1.7091,1.711,1.7124,1.7134,1.7156,1.7171,1.7176,1.7192,1.7216,1.7233,1.726,1.7281,1.7326,1.734,1.7366,1.7367,1.7391,1.7371,1.737,1.7369,1.7369,1.7372,1.7395,1.7395,1.7396,1.7396,0,1.712,1.7122,1.7142,1.7165,1.7182,1.72,1.7217,1.723,1.7238,1.7256,1.7284,1.7301,1.7335,1.7363,1.7391,1.7403,1.7403,1.7402,1.741,1.741,1.7407,1.7411,1.7337,1.7401,1.74,1.74,1.74,1.74,1.7154,1.7173,1.719,1.7213,1.7227,1.7244,1.7263,1.7273,1.7296,1.7324,1.7326,1.7357,1.7377,1.7414,1.7428,1.7454,1.7447,1.7457,1.746,1.7463,1.7466,1.7402,1.7459,1.7459,1.7459,1.7458,1.7458,0,1.7205,1.7215,1.7237,1.7261,1.7281,1.7276,1.7297,1.7314,1.734,1.7359,1.738,1.7414,1.7442,1.7458,1.7487,1.7504,1.7505,1.7512,1.7511,1.7515,1.7469,1.7461,1.7511,1.7511,1.7511,1.7511,1.7511,1.7511,1.7233,1.7264,1.7269,1.7309,1.732,1.7349,1.7361,1.7378,1.7393,1.743,1.7452,1.7463,1.7482,1.7512,1.7538,1.7543,1.7554,1.7562,1.7567,1.7523,1.7518,1.7513,1.7505,1.7564,1.7564,1.7611,1.7611,1.7611]},{"header":{"parameterUnit":"m.s-1","parameterCategory":1,"la1":30.2991,"la2":30.254,"lo1":-89.0895,"lo2":-89.0444,"dy":0.0017,"dx":0.0017,"nx":28,"ny":28,"refTime":"2025-03-10T21:00:00:Z","depth":0,"parameterNumber":3,"parameterNumberName":"V-component_of_WINDS"},"data":[0,0,0,0,0,0,0,0,0,0,0,0,0,0,0,0,0,0,0,0,0,0,0,0,0,0,0,0,0,0,0,0,0,0,0,0,0,0,0,0,0,0,0,0,0,0,0,0,0,0,0,0,0,0,0,0,0,0,-1.9062,-1.9061,0,-1.895,-1.8949,-1.8948,-1.8928,-1.8929,-1.893,-1.8931,-1.881,-1.8806,-1.8802,0,0,0,0,0,0,0,0,0,0,0,0,0,-1.9249,-1.9246,-1.9062,-1.906,-1.9059,-1.8951,-1.8949,-1.8947,-1.8928,-1.8929,-1.893,-1.8931,-1.8812,-1.8807,-1.8802,0,0,0,0,0,0,0,0,0,0,0,0,0,-1.9156,-1.9245,-1.9062,-1.9036,-1.9033,-1.8951,-1.8949,-1.8947,-1.8928,-1.8929,-1.893,-1.8932,-1.8813,-1.8807,-1.8801,-1.8735,0,0,-1.8782,-1.878,0,0,0,0,0,0,0,0,-1.9161,-1.9149,-1.9041,-1.9038,-1.9034,-1.8955,-1.8971,-1.8876,-1.8927,-1.8967,-1.8931,-1.8932,-1.8857,-1.8847,-1.8823,-1.8729,-1.8724,-1.8782,-1.8778,-1.8775,-1.8774,0,0,0,0,0,0,0,-1.9168,-1.9154,-1.9018,-1.904,-1.9035,-1.9028,-1.9016,-1.8953,-1.8905,-1.8964,-1.8962,-1.895,-1.8855,-1.8829,-1.882,-1.8722,-1.8782,-1.8777,-1.8773,-1.877,-1.8564,-1.8563,0,0,0,0,0,0,-1.918,-1.9159,-1.9021,-1.9014,-1.9103,-1.9023,-1.901,-1.8979,-1.8906,-1.8896,-1.8949,-1.8949,-1.8839,-1.8827,-1.8816,-1.873,-1.8776,-1.877,-1.8766,-1.8566,-1.8564,-1.8562,0,0,0,0,0,0,-1.9184,-1.9168,-1.9026,-1.9086,-1.9068,-1.9018,-1.8983,-1.8976,-1.895,-1.8894,-1.8885,-1.8931,-1.8839,-1.8824,-1.8755,-1.8726,-1.8767,-1.8761,-1.8568,-1.8565,-1.8563,-1.8561,0,0,0,0,0,0,-1.9189,-1.9169,-1.9146,-1.9086,-1.9064,-1.8969,-1.8982,-1.8972,-1.894,-1.894,-1.8876,-1.8866,-1.8839,-1.8764,-1.8749,-1.8718,-1.8757,-1.857,-1.8567,-1.8564,-1.8564,-1.8559,-1.8555,0,0,0,0,0,-1.9196,-1.9149,-1.9145,-1.9128,-1.9034,-1.8968,-1.8955,-1.8927,-1.8938,-1.8912,-1.8876,-1.8868,-1.8732,-1.8757,-1.8739,-1.8707,-1.8572,-1.8568,-1.8564,-1.8565,-1.856,-1.8555,0,0,0,0,0,0,-1.9206,-1.9141,-1.9135,-1.9068,-1.9024,-1.8964,-1.8931,-1.8922,-1.8872,-1.8873,-1.8838,-1.8824,-1.8755,-1.8724,-1.8753,-1.8637,-1.8652,-1.8645,-1.866,-1.8654,-1.8649,-1.8657,-1.8752,0,0,0,0,0,-1.92,-1.9154,-1.9099,-1.9045,-1.9023,-1.8981,-1.8951,-1.8933,-1.8884,-1.8865,-1.8824,-1.8775,-1.8721,-1.8686,-1.8633,-1.8559,-1.8543,-1.8528,-1.8524,-1.852,-1.8513,-1.8468,-1.8459,-1.8549,-1.8549,-1.8549,0,0,-1.9188,-1.9147,-1.9119,-1.9045,-1.9009,-1.8958,-1.8965,-1.8912,-1.8873,-1.8856,-1.8788,-1.8756,-1.8698,-1.8626,-1.8592,-1.8598,-1.8485,-1.8515,-1.8513,-1.8507,-1.8463,-1.8454,-1.8447,-1.8546,-1.8546,-1.8547,0,0,-1.9139,-1.9105,-1.9055,-1.9018,-1.8963,-1.8935,-1.8922,-1.8864,-1.8842,-1.8774,-1.8758,-1.871,-1.8619,-1.8578,-1.8545,-1.8478,-1.8467,-1.8462,-1.8438,-1.8394,-1.8387,-1.838,-1.8353,-1.8344,-1.8455,-1.8455,-1.8455,0,-1.913,-1.9056,-1.9029,-1.8976,-1.8943,-1.8926,-1.8872,-1.8837,-1.8767,-1.8742,-1.8751,-1.8633,-1.8594,-1.851,-1.8493,-1.8468,-1.845,-1.8468,-1.8391,-1.8384,-1.8377,-1.8351,-1.8341,-1.8455,-1.8455,-1.8455,-1.8455,0,-1.9046,-1.8995,-1.896,-1.8894,-1.8856,-1.8803,-1.8765,-1.873,-1.8714,-1.8685,-1.8612,-1.8564,-1.85,-1.8479,-1.8464,-1.8391,-1.8396,-1.8398,-1.8413,-1.8369,-1.8343,-1.8333,-1.8454,-1.8454,-1.8454,-1.8454,0,0,-1.9,-1.8919,-1.8906,-1.8874,-1.8811,-1.8769,-1.8714,-1.8653,-1.8621,-1.8573,-1.8523,-1.8445,-1.8445,-1.8408,-1.8387,-1.8349,-1.8295,-1.8355,-1.8353,-1.8343,-1.8207,-1.8204,-1.8193,-1.8288,-1.8286,-1.8285,-1.8211,0,-1.8942,-1.8845,-1.8818,-1.8735,-1.8685,-1.8667,-1.8618,-1.8572,-1.8542,-1.8493,-1.8459,-1.8403,-1.841,-1.8386,-1.8348,-1.831,-1.8266,-1.8315,-1.8238,-1.8235,-1.825,-1.8181,-1.8178,-1.8111,-1.8201,-1.82,-1.8198,0,-1.8861,-1.8812,-1.8724,-1.8664,-1.8642,-1.8599,-1.8539,-1.8493,-1.8439,-1.842,-1.8377,-1.8359,-1.8297,-1.8316,-1.8228,-1.8261,-1.8228,-1.8204,-1.82,-1.819,-1.8213,-1.8165,-1.8089,-1.8078,-1.8183,-1.8184,-1.8185,0,-1.8833,-1.8744,-1.8679,-1.8653,-1.8583,-1.8552,-1.8521,-1.8469,-1.8433,-1.8379,-1.8354,-1.8294,-1.826,-1.8212,-1.8177,-1.8195,-1.809,-1.8107,-1.8069,-1.8069,-1.8046,-1.8047,-1.796,-1.8029,-1.8029,-1.803,-1.803,0,-1.8769,-1.8715,-1.8665,-1.8625,-1.8563,-1.8531,-1.8469,-1.8437,-1.839,-1.834,-1.8321,-1.8275,-1.8232,-1.8179,-1.8151,-1.8079,-1.8065,-1.8045,-1.8037,-1.8045,-1.8047,-1.8021,-1.8023,-1.8027,-1.8027,-1.8028,-1.8028,0,-1.8727,-1.8692,-1.8619,-1.8558,-1.8541,-1.8498,-1.8444,-1.8402,-1.8372,-1.8309,-1.8292,-1.8242,-1.8178,-1.8139,-1.8058,-1.8038,-1.7959,-1.7955,-1.7978,-1.7974,-1.7936,-1.7939,-1.7827,-1.7809,-1.7893,-1.7892,-1.7891,0,-1.8687,-1.8645,-1.858,-1.8546,-1.8515,-1.8461,-1.8424,-1.839,-1.8351,-1.8285,-1.825,-1.8185,-1.8131,-1.8029,-1.7984,-1.7921,-1.7913,-1.7878,-1.7903,-1.7911,-1.7908,-1.791,-1.7903,-1.7873,-1.7872,-1.7872,-1.7871,0,-1.862,-1.8604,-1.8552,-1.8493,-1.845,-1.8401,-1.8353,-1.8326,-1.8283,-1.824,-1.8175,-1.8133,-1.805,-1.7984,-1.7916,-1.7881,-1.7867,-1.7864,-1.7851,-1.7857,-1.787,-1.7859,-1.7963,-1.7866,-1.7866,-1.7867,-1.7867,-1.7867,-1.8575,-1.8535,-1.8483,-1.8424,-1.8385,-1.8339,-1.8296,-1.826,-1.8206,-1.8136,-1.8119,-1.8049,-1.7992,-1.79,-1.7863,-1.7806,-1.7811,-1.7793,-1.7788,-1.7784,-1.7781,-1.7882,-1.7794,-1.7794,-1.7794,-1.7794,-1.7794,0,-1.8504,-1.8468,-1.8416,-1.8348,-1.8302,-1.8296,-1.8241,-1.8201,-1.8141,-1.8091,-1.8038,-1.7961,-1.7896,-1.7846,-1.7779,-1.7742,-1.7734,-1.7726,-1.7726,-1.7717,-1.7782,-1.7799,-1.7733,-1.7733,-1.7733,-1.7733,-1.7733,-1.7733,-1.8461,-1.8393,-1.837,-1.828,-1.8245,-1.8178,-1.8147,-1.8103,-1.8062,-1.7978,-1.7925,-1.7893,-1.7841,-1.7769,-1.7708,-1.7695,-1.7669,-1.7661,-1.7646,-1.7707,-1.7713,-1.772,-1.7735,-1.7657,-1.7657,-1.7585,-1.7585,-1.7584]}]]